Regional Weather Roundup
Issued by NWS Memphis, TN

Home | Current Version | Previous Version | Text Only | Print | Product List | Glossary On
Versions: 1 2 3 4 5 6 7 8 9 10 11 12 13 14 15 16 17 18 19 20 21 22 23 24 25 26 27 28 29 30 31 32 33 34 35 36 37 38 39 40 41 42 43 44 45 46 47 48 49 50
000
ASUS44 KMEG 231110
RWRMEG
MEMPHIS CWA HOURLY WEATHER ROUNDUP
NATIONAL WEATHER SERVICE MEMPHIS TN
600 AM CDT SAT SEP 23 2017

...WEST TENNESSEE...

CITY           SKY/WX    TMP DP  RH WIND       PRES   REMARKS
MEMPHIS INTL   CLEAR     74  69  85 CALM      30.00R
NWS MEMPHIS      N/A     69 N/A N/A MISG        N/A
JACKSON        FOG       65  65 100 CALM      30.02R VSB 1/4
COVINGTON      CLEAR     66  64  94 CALM      30.00S FOG
SOMERVILLE     CLEAR     66  66 100 CALM      30.00R FOG
BOLIVAR        PTCLDY    64  64 100 CALM      30.01R
LEXINGTON      CLEAR     66  64  94 CALM      30.01S FOG
SELMER         CLEAR     68  66  94 CALM      30.01R
SAVANNAH       CLEAR     64  64 100 CALM      30.00R
DYERSBURG      CLEAR     69  67  93 NE3       30.02R
PARIS          CLEAR     66  66 100 CALM      30.01S
HUNTINGDON     PTCLDY    68  66  94 CALM      30.01R


...EASTERN ARKANSAS...

CITY           SKY/WX    TMP DP  RH WIND       PRES   REMARKS
JONESBORO      CLEAR     68  67  96 CALM      30.00R
WEST MEMPHIS   CLEAR     69  69 100 CALM      29.98R
BATESVILLE     CLEAR    N/A N/A N/A CALM      30.01R
NEWPORT        CLEAR     66  65  96 NE3       30.00R
BLYTHEVILLE    CLEAR     68  67  96 CALM      30.01R
SEARCY         CLEAR     67  67 100 MISG      30.01R
STUTTGART      CLEAR     70  68  93 N5        29.99R
PINE BLUFF     CLEAR     69  68  96 CALM      29.98R FOG
MONTICELLO     CLEAR     71  68  90 CALM      29.97R


...NORTH MISSISSIPPI...

CITY           SKY/WX    TMP DP  RH WIND       PRES   REMARKS
TUPELO         CLEAR     70  67  90 N6        29.99R
OXFORD         CLEAR     68  66  94 CALM      30.01R
BATESVILLE     MOCLDY    66  65  96 CALM      30.00R FOG
TUNICA           N/A     66  66 100 CALM      30.00R FOG
CLARKSDALE       N/A     70  70 100 CALM      29.98R
GREENWOOD      CLEAR     71  69  93 NE5       29.97R
COLUMBUS       CLEAR     69  69 100 CALM      29.98R
STARKVILLE       N/A     68  68 100 CALM      30.00R FOG
GOLDEN TRIANGL CLEAR     70  68  94 CALM      29.99  FOG


...SOUTHEAST MISSOURI...

CITY           SKY/WX    TMP DP  RH WIND       PRES   REMARKS
KENNETT        CLEAR     70  68  94 NE3       30.00R FOG
MALDEN         CLEAR     70  64  83 CALM      30.03R
WEST PLAINS    CLEAR     65  63  93 CALM      30.06R
POPLAR BLUFF   CLEAR     66  65  96 CALM      30.01R
CAPE GIRARDEAU FOG       64  64 100 CALM      30.02R VSB 1/4


...NORTHWEST ALABAMA...

CITY           SKY/WX    TMP DP  RH WIND       PRES   REMARKS
MUSCLE SHOALS  CLEAR     66  64  93 CALM      30.03R FOG


...MIDDLE TENNESSEE...

CITY           SKY/WX    TMP DP  RH WIND       PRES   REMARKS
NASHVILLE      CLEAR     69  67  93 CALM      30.04R
CLARKSVILLE    FOG       64  62  93 CALM      30.04R VSB 1/4
COLUMBIA       CLEAR     66 N/A N/A CALM      30.02R


...WESTERN KENTUCKY...

CITY           SKY/WX    TMP DP  RH WIND       PRES   REMARKS
PADUCAH        CLEAR     65  64  97 CALM      30.02R FOG
FORT CAMPBELL  CLEAR     66  66 100 NE5       30.03R


...CENTRAL ARKANSAS...

CITY           SKY/WX    TMP DP  RH WIND       PRES   REMARKS
LITTLE ROCK    CLEAR     71  71 100 NE3       29.98R


SKY/WX REPORTED AS FAIR MEANS FEW OR NO CLOUDS BELOW
12 THOUSAND FEET.





USA.gov is the U.S. government's official web portal to all federal, state and local government web resources and services.